レモン-パンスターズ彗星

P/2015 TO19 ( Lemmon-PanSTARRS )

English version
Home page
Updated on November 13, 2016

---------------------------------------------------------------------

・ プロフィール

発見日 2015年10月13日
発見光度 20.4等
発見者 D. C. Fuls (Mount Lemmon Survey), Pan-STARRS 1 telescope (Haleakala)

・ 写真集

・ 軌道要素

Epoch 2016 Feb. 22.0 TT = JDT 2457440.5
T 2016 Mar. 6.99857 TT                                  MPCW
q   2.9254810            (2000.0)            P               Q
n   0.10112748     Peri.   89.28840     +0.62619519     -0.77649589
a   4.5627141      Node   321.64795     +0.66272570     +0.57756524
e   0.3588288      Incl.    6.49988     +0.41069968     +0.25193753
P   9.75
From 51 observations 2015 Sept. 12-2016 Aug. 12, mean residual 0".4.

・ 光度変化

        m1 = 13.0 + 5 logΔ + 10.0 log r

---------------------------------------------------------------------

軌道要素はM.P.E.C. 2016-Q04に掲載されたものです。
光度グラフはComet for Windowsで作成したものです。

---------------------------------------------------------------------

Copyright(C) Seiichi Yoshida (comet@aerith.net). All rights reserved.